Time,TemperatureF,DewpointF,PressureIn,WindDirection,WindDirectionDegrees,WindSpeedMPH,WindSpeedGustMPH,Humidity,HourlyPrecipIn,Conditions,Clouds,dailyrainin,SoftwareType,DateUTC
2013-03-08 00:05:00,58.4,50.5,30.07,SE,128,4.0,4.0,75,0.00,,,0.00,Wunderground v.1.15,2013-03-08 06:05:00,
2013-03-08 00:10:00,58.3,50.4,30.08,SSE,152,4.0,4.0,75,0.00,,,0.00,Wunderground v.1.15,2013-03-08 06:10:00,
2013-03-08 00:20:00,58.3,50.4,30.07,ESE,116,2.0,7.0,75,0.00,,,0.00,Wunderground v.1.15,2013-03-08 06:20:00,
2013-03-08 00:25:00,58.3,50.4,30.07,SE,137,3.0,7.0,75,0.00,,,0.00,Wunderground v.1.15,2013-03-08 06:25:00,
2013-03-08 00:35:00,58.1,50.6,30.06,SE,124,5.0,5.0,76,0.00,,,0.00,Wunderground v.1.15,2013-03-08 06:35:00,
2013-03-08 00:40:00,58.1,50.6,30.06,SE,128,5.0,6.0,76,0.00,,,0.00,Wunderground v.1.15,2013-03-08 06:40:00,
2013-03-08 00:50:00,58.1,50.6,30.07,SE,145,5.0,5.0,76,0.00,,,0.00,Wunderground v.1.15,2013-03-08 06:50:00,
2013-03-08 00:55:00,58.0,50.5,30.07,SSE,148,3.0,5.0,76,0.00,,,0.00,Wunderground v.1.15,2013-03-08 06:55:00,
2013-03-08 01:05:00,58.0,50.8,30.06,SE,141,4.0,7.0,77,0.00,,,0.00,Wunderground v.1.15,2013-03-08 07:05:00,
2013-03-08 01:10:00,58.0,50.8,30.06,SE,145,3.0,3.0,77,0.00,,,0.00,Wunderground v.1.15,2013-03-08 07:10:00,
2013-03-08 01:20:00,58.0,51.2,30.07,ESE,120,4.0,4.0,78,0.00,,,0.00,Wunderground v.1.15,2013-03-08 07:20:00,
2013-03-08 01:25:00,58.0,51.2,30.07,ESE,114,3.0,4.0,78,0.00,,,0.00,Wunderground v.1.15,2013-03-08 07:25:00,
2013-03-08 01:35:00,57.8,51.0,30.06,SE,133,4.0,8.0,78,0.00,,,0.00,Wunderground v.1.15,2013-03-08 07:35:00,
2013-03-08 01:40:00,57.8,51.0,30.06,ESE,123,5.0,5.0,78,0.00,,,0.00,Wunderground v.1.15,2013-03-08 07:40:00,
2013-03-08 01:50:00,57.8,51.3,30.06,SE,134,3.0,3.0,79,0.00,,,0.00,Wunderground v.1.15,2013-03-08 07:50:00,
2013-03-08 01:55:00,57.8,51.3,30.06,SE,127,3.0,3.0,79,0.00,,,0.00,Wunderground v.1.15,2013-03-08 07:55:00,
2013-03-08 02:05:00,57.6,51.1,30.05,SE,143,4.0,6.0,79,0.00,,,0.00,Wunderground v.1.15,2013-03-08 08:05:00,
2013-03-08 02:10:00,57.6,51.1,30.05,SE,137,4.0,4.0,79,0.00,,,0.00,Wunderground v.1.15,2013-03-08 08:10:00,
2013-03-08 02:20:00,57.6,51.5,30.05,SE,143,3.0,3.0,80,0.00,,,0.00,Wunderground v.1.15,2013-03-08 08:20:00,
2013-03-08 02:25:00,57.6,51.1,30.05,SE,143,2.0,6.0,79,0.00,,,0.00,Wunderground v.1.15,2013-03-08 08:25:00,
2013-03-08 02:35:00,57.5,51.4,30.05,SSE,151,3.0,5.0,80,0.00,,,0.00,Wunderground v.1.15,2013-03-08 08:35:00,
2013-03-08 02:40:00,57.5,51.4,30.04,South,179,4.0,5.0,80,0.00,,,0.00,Wunderground v.1.15,2013-03-08 08:40:00,
2013-03-08 02:50:00,57.5,51.4,30.04,ESE,120,3.0,3.0,80,0.00,,,0.00,Wunderground v.1.15,2013-03-08 08:50:00,
2013-03-08 02:55:00,57.5,51.4,30.04,SE,141,2.0,3.0,80,0.00,,,0.00,Wunderground v.1.15,2013-03-08 08:55:00,
2013-03-08 03:05:00,57.3,51.5,30.04,South,172,4.0,10.0,81,0.00,,,0.00,Wunderground v.1.15,2013-03-08 09:05:00,
2013-03-08 03:10:00,57.3,51.5,30.04,ESE,114,3.0,8.0,81,0.00,,,0.00,Wunderground v.1.15,2013-03-08 09:10:00,
2013-03-08 03:20:00,57.2,51.8,30.03,SSE,164,3.0,8.0,82,0.00,,,0.00,Wunderground v.1.15,2013-03-08 09:20:00,
2013-03-08 03:25:00,57.2,51.8,30.03,SE,134,3.0,8.0,82,0.00,,,0.00,Wunderground v.1.15,2013-03-08 09:25:00,
2013-03-08 03:35:00,57.0,51.9,30.03,SE,140,4.0,6.0,83,0.00,,,0.00,Wunderground v.1.15,2013-03-08 09:35:00,
2013-03-08 03:40:00,56.9,51.8,30.03,SE,140,3.0,3.0,83,0.00,,,0.00,Wunderground v.1.15,2013-03-08 09:40:00,
2013-03-08 03:50:00,56.7,51.6,30.03,ESE,119,2.0,2.0,83,0.00,,,0.00,Wunderground v.1.15,2013-03-08 09:50:00,
2013-03-08 03:55:00,56.7,51.6,30.03,SE,127,3.0,3.0,83,0.00,,,0.00,Wunderground v.1.15,2013-03-08 09:55:00,
2013-03-08 04:05:00,56.6,51.5,30.03,ESE,123,2.0,6.0,83,0.00,,,0.00,Wunderground v.1.15,2013-03-08 10:05:00,
2013-03-08 04:10:00,56.6,51.8,30.03,SE,127,1.0,5.0,84,0.00,,,0.00,Wunderground v.1.15,2013-03-08 10:10:00,
2013-03-08 04:20:00,56.6,51.8,30.03,SSE,150,2.0,2.0,84,0.00,,,0.00,Wunderground v.1.15,2013-03-08 10:20:00,
2013-03-08 04:25:00,56.6,51.8,30.02,SE,143,2.0,2.0,84,0.00,,,0.00,Wunderground v.1.15,2013-03-08 10:25:00,
2013-03-08 04:35:00,56.6,52.1,30.02,SE,137,1.0,2.0,85,0.00,,,0.00,Wunderground v.1.15,2013-03-08 10:35:00,
2013-03-08 04:40:00,56.6,52.1,30.02,SE,127,1.0,1.0,85,0.00,,,0.00,Wunderground v.1.15,2013-03-08 10:40:00,
2013-03-08 04:50:00,56.5,52.0,30.03,SE,127,1.0,1.0,85,0.00,,,0.00,Wunderground v.1.15,2013-03-08 10:50:00,
2013-03-08 04:55:00,56.5,52.4,30.03,SE,127,1.0,1.0,86,0.00,,,0.00,Wunderground v.1.15,2013-03-08 10:55:00,
2013-03-08 05:05:00,56.5,52.7,30.03,SE,130,1.0,3.0,87,0.00,,,0.00,Wunderground v.1.15,2013-03-08 11:05:00,
2013-03-08 05:10:00,56.5,52.7,30.03,SE,140,1.0,1.0,87,0.00,,,0.00,Wunderground v.1.15,2013-03-08 11:10:00,
2013-03-08 05:20:00,56.5,52.7,30.04,SE,144,1.0,3.0,87,0.00,,,0.00,Wunderground v.1.15,2013-03-08 11:20:00,
2013-03-08 05:25:00,56.5,52.7,30.04,SE,143,1.0,3.0,87,0.00,,,0.00,Wunderground v.1.15,2013-03-08 11:25:00,
2013-03-08 05:35:00,56.5,52.7,30.04,SE,141,2.0,7.0,87,0.00,,,0.00,Wunderground v.1.15,2013-03-08 11:35:00,
2013-03-08 05:40:00,56.5,52.7,30.04,SE,141,2.0,2.0,87,0.00,,,0.00,Wunderground v.1.15,2013-03-08 11:40:00,
2013-03-08 05:50:00,56.5,52.7,30.05,SE,141,2.0,2.0,87,0.00,,,0.00,Wunderground v.1.15,2013-03-08 11:50:00,
2013-03-08 05:55:00,56.5,53.0,30.05,SE,141,1.0,3.0,88,0.00,,,0.00,Wunderground v.1.15,2013-03-08 11:55:00,
2013-03-08 06:05:00,56.5,53.0,30.06,SE,137,2.0,2.0,88,0.00,,,0.00,Wunderground v.1.15,2013-03-08 12:05:00,
2013-03-08 06:10:00,56.3,53.1,30.05,SE,137,1.0,2.0,89,0.00,,,0.00,Wunderground v.1.15,2013-03-08 12:10:00,
2013-03-08 06:20:00,56.3,53.1,30.05,SE,138,1.0,4.0,89,0.00,,,0.00,Wunderground v.1.15,2013-03-08 12:20:00,
2013-03-08 06:25:00,56.3,53.1,30.05,SE,137,1.0,4.0,89,0.00,,,0.00,Wunderground v.1.15,2013-03-08 12:25:00,
2013-03-08 06:35:00,56.2,53.3,30.05,SE,134,3.0,3.0,90,0.00,,,0.00,Wunderground v.1.15,2013-03-08 12:35:00,
2013-03-08 06:40:00,56.2,53.3,30.05,SE,124,3.0,3.0,90,0.00,,,0.00,Wunderground v.1.15,2013-03-08 12:40:00,
2013-03-08 06:50:00,56.2,53.6,30.05,SE,126,2.0,2.0,91,0.00,,,0.00,Wunderground v.1.15,2013-03-08 12:50:00,
2013-03-08 06:55:00,56.0,53.4,30.05,SE,126,1.0,2.0,91,0.00,,,0.00,Wunderground v.1.15,2013-03-08 12:55:00,
2013-03-08 07:05:00,56.0,53.7,30.05,SE,126,2.0,3.0,92,0.00,,,0.00,Wunderground v.1.15,2013-03-08 13:05:00,
2013-03-08 07:10:00,55.9,53.6,30.05,SE,126,3.0,3.0,92,0.00,,,0.00,Wunderground v.1.15,2013-03-08 13:10:00,
2013-03-08 07:20:00,55.9,53.9,30.06,SE,126,3.0,3.0,93,0.00,,,0.00,Wunderground v.1.15,2013-03-08 13:20:00,
2013-03-08 07:25:00,55.9,53.9,30.07,SE,127,3.0,3.0,93,0.00,,,0.00,Wunderground v.1.15,2013-03-08 13:25:00,
2013-03-08 07:35:00,55.7,54.0,30.07,SE,127,1.0,1.0,94,0.00,,,0.00,Wunderground v.1.15,2013-03-08 13:35:00,
2013-03-08 07:40:00,55.7,54.0,30.07,SE,127,1.0,1.0,94,0.00,,,0.00,Wunderground v.1.15,2013-03-08 13:40:00,
2013-03-08 07:50:00,55.7,54.3,30.07,SE,127,2.0,3.0,95,0.00,,,0.00,Wunderground v.1.15,2013-03-08 13:50:00,
2013-03-08 07:55:00,55.9,54.5,30.07,SE,127,2.0,3.0,95,0.00,,,0.00,Wunderground v.1.15,2013-03-08 13:55:00,
2013-03-08 08:05:00,55.9,54.5,30.07,SE,124,2.0,7.0,95,0.00,,,0.00,Wunderground v.1.15,2013-03-08 14:05:00,
2013-03-08 08:10:00,55.9,54.5,30.07,SE,124,3.0,3.0,95,0.00,,,0.00,Wunderground v.1.15,2013-03-08 14:10:00,
2013-03-08 08:20:00,56.0,54.9,30.08,SE,128,3.0,3.0,96,0.00,,,0.00,Wunderground v.1.15,2013-03-08 14:20:00,
2013-03-08 08:25:00,56.2,55.1,30.08,SE,127,3.0,3.0,96,0.00,,,0.00,Wunderground v.1.15,2013-03-08 14:25:00,
2013-03-08 08:35:00,56.2,55.1,30.09,SE,127,2.0,2.0,96,0.00,,,0.00,Wunderground v.1.15,2013-03-08 14:35:00,
2013-03-08 08:40:00,56.3,55.2,30.09,SE,127,1.0,2.0,96,0.00,,,0.00,Wunderground v.1.15,2013-03-08 14:40:00,
2013-03-08 08:50:00,56.5,56.5,30.08,SE,127,2.0,2.0,100,0.00,,,0.00,Wunderground v.1.15,2013-03-08 14:50:00,
2013-03-08 08:55:00,56.6,56.6,30.08,SE,127,2.0,2.0,100,0.00,,,0.00,Wunderground v.1.15,2013-03-08 14:55:00,
2013-03-08 09:05:00,56.7,56.7,30.09,SE,127,3.0,6.0,100,0.00,,,0.00,Wunderground v.1.15,2013-03-08 15:05:00,
2013-03-08 09:10:00,56.9,56.9,30.09,SE,127,1.0,1.0,100,0.00,,,0.00,Wunderground v.1.15,2013-03-08 15:10:00,
2013-03-08 09:20:00,57.2,57.2,30.09,SE,128,2.0,2.0,100,0.00,,,0.01,Wunderground v.1.15,2013-03-08 15:20:00,
2013-03-08 09:25:00,57.3,57.3,30.10,SE,128,1.0,2.0,100,0.00,,,0.01,Wunderground v.1.15,2013-03-08 15:25:00,
2013-03-08 09:35:00,57.5,57.5,30.10,SE,128,2.0,3.0,100,0.00,,,0.01,Wunderground v.1.15,2013-03-08 15:35:00,
2013-03-08 09:40:00,57.6,57.6,30.10,SE,128,2.0,2.0,100,0.00,,,0.02,Wunderground v.1.15,2013-03-08 15:40:00,
2013-03-08 09:50:00,57.8,57.8,30.10,SE,128,2.0,6.0,100,0.00,,,0.02,Wunderground v.1.15,2013-03-08 15:50:00,
2013-03-08 09:55:00,57.8,57.8,30.11,SE,128,2.0,6.0,100,0.00,,,0.02,Wunderground v.1.15,2013-03-08 15:55:00,
2013-03-08 10:05:00,58.1,58.1,30.10,SE,130,2.0,3.0,100,0.00,,,0.03,Wunderground v.1.15,2013-03-08 16:05:00,
2013-03-08 10:10:00,58.1,58.1,30.10,SE,130,2.0,2.0,100,0.00,,,0.03,Wunderground v.1.15,2013-03-08 16:10:00,
2013-03-08 10:20:00,58.1,58.1,30.10,SE,128,2.0,3.0,100,0.00,,,0.03,Wunderground v.1.15,2013-03-08 16:20:00,
2013-03-08 10:25:00,58.1,58.1,30.10,SE,128,2.0,3.0,100,0.00,,,0.03,Wunderground v.1.15,2013-03-08 16:25:00,
2013-03-08 10:35:00,58.3,58.3,30.10,SE,127,3.0,3.0,100,0.00,,,0.03,Wunderground v.1.15,2013-03-08 16:35:00,
2013-03-08 10:40:00,58.3,58.3,30.10,SE,127,3.0,3.0,100,0.00,,,0.03,Wunderground v.1.15,2013-03-08 16:40:00,
2013-03-08 10:50:00,58.4,58.4,30.09,SE,126,2.0,2.0,100,0.00,,,0.03,Wunderground v.1.15,2013-03-08 16:50:00,
2013-03-08 10:55:00,58.6,58.6,30.08,SE,124,3.0,3.0,100,0.00,,,0.03,Wunderground v.1.15,2013-03-08 16:55:00,
2013-03-08 11:05:00,58.7,58.7,30.08,ESE,120,4.0,4.0,100,0.00,,,0.03,Wunderground v.1.15,2013-03-08 17:05:00,
2013-03-08 11:10:00,58.9,58.9,30.08,ESE,121,4.0,5.0,100,0.00,,,0.03,Wunderground v.1.15,2013-03-08 17:10:00,
2013-03-08 11:20:00,59.0,59.0,30.08,ESE,119,3.0,3.0,100,0.00,,,0.03,Wunderground v.1.15,2013-03-08 17:20:00,
2013-03-08 11:25:00,59.0,59.0,30.08,ESE,116,4.0,4.0,100,0.00,,,0.03,Wunderground v.1.15,2013-03-08 17:25:00,
2013-03-08 11:35:00,59.2,59.2,30.09,SE,136,2.0,4.0,100,0.00,,,0.03,Wunderground v.1.15,2013-03-08 17:35:00,
2013-03-08 11:40:00,59.2,59.2,30.09,SE,136,2.0,8.0,100,0.00,,,0.03,Wunderground v.1.15,2013-03-08 17:40:00,
2013-03-08 11:50:00,59.3,59.3,30.09,SE,134,2.0,2.0,100,0.00,,,0.03,Wunderground v.1.15,2013-03-08 17:50:00,
2013-03-08 11:55:00,59.5,59.5,30.09,SE,136,1.0,3.0,100,0.00,,,0.03,Wunderground v.1.15,2013-03-08 17:55:00,
2013-03-08 12:05:00,59.5,59.5,30.08,SE,136,3.0,3.0,100,0.00,,,0.03,Wunderground v.1.15,2013-03-08 18:05:00,
2013-03-08 12:10:00,59.6,59.6,30.08,SE,134,3.0,8.0,100,0.00,,,0.03,Wunderground v.1.15,2013-03-08 18:10:00,
2013-03-08 12:20:00,59.6,59.6,30.08,SE,131,3.0,3.0,100,0.00,,,0.03,Wunderground v.1.15,2013-03-08 18:20:00,
2013-03-08 12:25:00,59.6,59.6,30.07,SE,127,4.0,5.0,100,0.00,,,0.03,Wunderground v.1.15,2013-03-08 18:25:00,
2013-03-08 12:35:00,59.8,59.8,30.07,ESE,110,4.0,5.0,100,0.00,,,0.03,Wunderground v.1.15,2013-03-08 18:35:00,
2013-03-08 12:40:00,59.9,59.9,30.07,ESE,110,4.0,7.0,100,0.00,,,0.03,Wunderground v.1.15,2013-03-08 18:40:00,
2013-03-08 12:50:00,60.1,60.1,30.05,ESE,109,4.0,4.0,100,0.00,,,0.03,Wunderground v.1.15,2013-03-08 18:50:00,
2013-03-08 12:55:00,60.2,60.2,30.05,ESE,109,4.0,6.0,100,0.00,,,0.03,Wunderground v.1.15,2013-03-08 18:55:00,
2013-03-08 13:05:00,60.5,60.5,30.03,ESE,107,5.0,6.0,100,0.00,,,0.03,Wunderground v.1.15,2013-03-08 19:05:00,
2013-03-08 13:10:00,60.7,60.7,30.03,ESE,107,5.0,5.0,100,0.00,,,0.03,Wunderground v.1.15,2013-03-08 19:10:00,
2013-03-08 13:20:00,60.7,60.7,30.03,ESE,107,4.0,6.0,100,0.00,,,0.03,Wunderground v.1.15,2013-03-08 19:20:00,
2013-03-08 13:25:00,60.7,60.7,30.03,ESE,110,4.0,6.0,100,0.00,,,0.03,Wunderground v.1.15,2013-03-08 19:25:00,
2013-03-08 13:35:00,60.9,60.9,30.02,ESE,112,5.0,6.0,100,0.00,,,0.03,Wunderground v.1.15,2013-03-08 19:35:00,
2013-03-08 13:40:00,60.9,60.9,30.03,ESE,113,4.0,4.0,100,0.00,,,0.03,Wunderground v.1.15,2013-03-08 19:40:00,
2013-03-08 13:50:00,60.7,60.7,30.03,ESE,107,4.0,4.0,100,0.00,,,0.03,Wunderground v.1.15,2013-03-08 19:50:00,
2013-03-08 13:55:00,60.7,60.7,30.03,ESE,107,4.0,4.0,100,0.00,,,0.03,Wunderground v.1.15,2013-03-08 19:55:00,
2013-03-08 14:05:00,60.7,60.7,30.03,ESE,107,2.0,4.0,100,0.00,,,0.03,Wunderground v.1.15,2013-03-08 20:05:00,
2013-03-08 14:10:00,60.7,60.7,30.03,ESE,107,2.0,2.0,100,0.00,,,0.04,Wunderground v.1.15,2013-03-08 20:10:00,
2013-03-08 14:20:00,60.9,60.9,30.03,ESE,107,1.0,1.0,100,0.00,,,0.04,Wunderground v.1.15,2013-03-08 20:20:00,
2013-03-08 14:25:00,60.9,60.9,30.03,ESE,107,1.0,2.0,100,0.00,,,0.04,Wunderground v.1.15,2013-03-08 20:25:00,
2013-03-08 14:35:00,61.0,61.0,30.02,ESE,107,1.0,1.0,100,0.00,,,0.04,Wunderground v.1.15,2013-03-08 20:35:00,
2013-03-08 14:40:00,61.0,61.0,30.02,ESE,107,2.0,4.0,100,0.00,,,0.04,Wunderground v.1.15,2013-03-08 20:40:00,
2013-03-08 14:50:00,61.0,61.0,30.02,ESE,107,2.0,2.0,100,0.00,,,0.04,Wunderground v.1.15,2013-03-08 20:50:00,
2013-03-08 14:55:00,61.0,61.0,30.02,ESE,107,2.0,3.0,100,0.00,,,0.05,Wunderground v.1.15,2013-03-08 20:55:00,
2013-03-08 15:05:00,61.2,61.2,30.01,ESE,107,3.0,3.0,100,0.06,,,0.06,Wunderground v.1.15,2013-03-08 21:05:00,
2013-03-08 15:10:00,61.3,61.3,30.00,ESE,107,3.0,3.0,100,0.06,,,0.06,Wunderground v.1.15,2013-03-08 21:10:00,
2013-03-08 15:20:00,61.5,61.5,30.00,ESE,107,3.0,5.0,100,0.00,,,0.06,Wunderground v.1.15,2013-03-08 21:20:00,
2013-03-08 15:25:00,61.6,61.6,30.00,ESE,119,4.0,5.0,100,0.00,,,0.06,Wunderground v.1.15,2013-03-08 21:25:00,
2013-03-08 15:35:00,62.0,62.0,30.00,ESE,119,4.0,7.0,100,0.00,,,0.06,Wunderground v.1.15,2013-03-08 21:35:00,
2013-03-08 15:40:00,62.0,62.0,30.00,ESE,123,4.0,11.0,100,0.00,,,0.06,Wunderground v.1.15,2013-03-08 21:40:00,
2013-03-08 15:50:00,62.1,62.1,30.00,SE,130,5.0,5.0,100,0.00,,,0.06,Wunderground v.1.15,2013-03-08 21:50:00,
2013-03-08 15:55:00,62.3,62.3,29.99,SE,127,4.0,5.0,100,0.00,,,0.06,Wunderground v.1.15,2013-03-08 21:55:00,
2013-03-08 16:05:00,62.6,62.6,29.98,ESE,110,5.0,5.0,100,0.00,,,0.06,Wunderground v.1.15,2013-03-08 22:05:00,
2013-03-08 16:10:00,62.6,62.6,29.98,ESE,112,6.0,6.0,100,0.00,,,0.06,Wunderground v.1.15,2013-03-08 22:10:00,
2013-03-08 16:20:00,62.7,62.7,29.99,ESE,117,6.0,7.0,100,0.00,,,0.06,Wunderground v.1.15,2013-03-08 22:20:00,
2013-03-08 16:25:00,62.9,62.9,30.00,ESE,114,6.0,7.0,100,0.00,,,0.06,Wunderground v.1.15,2013-03-08 22:25:00,
2013-03-08 16:35:00,63.1,63.1,29.99,SE,124,3.0,5.0,100,0.00,,,0.06,Wunderground v.1.15,2013-03-08 22:35:00,
2013-03-08 16:40:00,63.1,63.1,29.99,SE,130,4.0,6.0,100,0.00,,,0.06,Wunderground v.1.15,2013-03-08 22:40:00,
2013-03-08 16:50:00,63.1,63.1,29.98,East,100,7.0,7.0,100,0.00,,,0.06,Wunderground v.1.15,2013-03-08 22:50:00,
2013-03-08 16:55:00,63.1,63.1,29.98,ESE,116,6.0,7.0,100,0.00,,,0.06,Wunderground v.1.15,2013-03-08 22:55:00,
2013-03-08 17:05:00,63.1,63.1,29.98,ESE,103,6.0,6.0,100,0.00,,,0.06,Wunderground v.1.15,2013-03-08 23:05:00,
2013-03-08 17:10:00,63.1,63.1,29.98,ESE,112,6.0,6.0,100,0.00,,,0.06,Wunderground v.1.15,2013-03-08 23:10:00,
2013-03-08 17:20:00,63.1,63.1,29.98,SE,126,5.0,7.0,100,0.00,,,0.06,Wunderground v.1.15,2013-03-08 23:20:00,
2013-03-08 17:25:00,63.1,63.1,29.97,ESE,119,5.0,7.0,100,0.00,,,0.06,Wunderground v.1.15,2013-03-08 23:25:00,
2013-03-08 17:35:00,63.1,63.1,29.97,ESE,119,6.0,8.0,100,0.00,,,0.06,Wunderground v.1.15,2013-03-08 23:35:00,
2013-03-08 17:40:00,63.1,61.9,29.97,SE,124,6.0,6.0,96,0.00,,,0.06,Wunderground v.1.15,2013-03-08 23:40:00,
2013-03-08 17:50:00,63.1,61.3,29.97,ESE,116,5.0,5.0,94,0.00,,,0.06,Wunderground v.1.15,2013-03-08 23:50:00,
2013-03-08 17:55:00,63.1,61.3,29.97,ESE,104,5.0,5.0,94,0.00,,,0.06,Wunderground v.1.15,2013-03-08 23:55:00,
2013-03-08 18:05:00,63.1,60.7,29.96,ESE,106,6.0,8.0,92,0.00,,,0.06,Wunderground v.1.15,2013-03-09 00:05:00,
2013-03-08 18:10:00,63.1,60.7,29.97,ESE,114,6.0,6.0,92,0.00,,,0.06,Wunderground v.1.15,2013-03-09 00:10:00,
2013-03-08 18:20:00,63.2,60.5,29.98,SE,127,4.0,7.0,91,0.00,,,0.06,Wunderground v.1.15,2013-03-09 00:20:00,
2013-03-08 18:25:00,63.2,60.2,29.98,SE,127,4.0,7.0,90,0.00,,,0.06,Wunderground v.1.15,2013-03-09 00:25:00,
2013-03-08 18:35:00,63.2,59.9,29.98,SE,133,4.0,5.0,89,0.00,,,0.06,Wunderground v.1.15,2013-03-09 00:35:00,
2013-03-08 18:40:00,63.2,59.6,29.99,ESE,102,4.0,4.0,88,0.00,,,0.06,Wunderground v.1.15,2013-03-09 00:40:00,
2013-03-08 18:50:00,63.1,59.2,30.00,SE,131,4.0,7.0,87,0.00,,,0.06,Wunderground v.1.15,2013-03-09 00:50:00,
2013-03-08 18:55:00,63.1,59.2,30.00,SE,138,3.0,7.0,87,0.00,,,0.06,Wunderground v.1.15,2013-03-09 00:55:00,
2013-03-08 19:05:00,62.9,59.0,30.00,SSE,148,4.0,4.0,87,0.00,,,0.06,Wunderground v.1.15,2013-03-09 01:05:00,
2013-03-08 19:10:00,62.9,58.6,30.00,SSE,150,4.0,6.0,86,0.00,,,0.06,Wunderground v.1.15,2013-03-09 01:10:00,
2013-03-08 19:20:00,62.9,58.6,30.00,SE,144,4.0,5.0,86,0.00,,,0.06,Wunderground v.1.15,2013-03-09 01:20:00,
2013-03-08 19:25:00,62.9,58.6,29.99,SE,124,4.0,6.0,86,0.00,,,0.06,Wunderground v.1.15,2013-03-09 01:25:00,
2013-03-08 19:35:00,62.9,58.6,30.00,SE,137,5.0,5.0,86,0.00,,,0.06,Wunderground v.1.15,2013-03-09 01:35:00,
2013-03-08 19:40:00,62.7,58.5,29.99,SE,138,4.0,4.0,86,0.00,,,0.06,Wunderground v.1.15,2013-03-09 01:40:00,
2013-03-08 19:50:00,62.7,58.5,29.99,SE,124,5.0,5.0,86,0.00,,,0.06,Wunderground v.1.15,2013-03-09 01:50:00,
2013-03-08 19:55:00,62.6,58.4,30.00,SE,138,4.0,5.0,86,0.00,,,0.06,Wunderground v.1.15,2013-03-09 01:55:00,
2013-03-08 20:05:00,62.6,58.4,30.00,ESE,109,5.0,13.0,86,0.00,,,0.06,Wunderground v.1.15,2013-03-09 02:05:00,
2013-03-08 20:10:00,62.4,58.2,30.00,SE,126,3.0,3.0,86,0.00,,,0.06,Wunderground v.1.15,2013-03-09 02:10:00,
2013-03-08 20:20:00,62.4,58.2,30.00,ESE,116,6.0,6.0,86,0.00,,,0.06,Wunderground v.1.15,2013-03-09 02:20:00,
2013-03-08 20:25:00,62.3,57.7,30.00,SE,134,7.0,7.0,85,0.00,,,0.06,Wunderground v.1.15,2013-03-09 02:25:00,
2013-03-08 20:35:00,62.3,58.1,30.01,SE,137,5.0,10.0,86,0.00,,,0.06,Wunderground v.1.15,2013-03-09 02:35:00,
2013-03-08 20:40:00,62.1,57.9,30.01,ESE,121,5.0,5.0,86,0.00,,,0.06,Wunderground v.1.15,2013-03-09 02:40:00,
2013-03-08 20:50:00,62.0,57.8,30.01,ESE,116,5.0,5.0,86,0.00,,,0.06,Wunderground v.1.15,2013-03-09 02:50:00,
2013-03-08 20:55:00,62.0,57.8,30.01,ESE,104,4.0,12.0,86,0.00,,,0.06,Wunderground v.1.15,2013-03-09 02:55:00,
2013-03-08 21:05:00,61.8,57.6,30.01,SE,133,4.0,4.0,86,0.00,,,0.06,Wunderground v.1.15,2013-03-09 03:05:00,
2013-03-08 21:10:00,61.8,57.6,30.01,ESE,121,5.0,5.0,86,0.00,,,0.06,Wunderground v.1.15,2013-03-09 03:10:00,
2013-03-08 21:20:00,61.6,57.4,30.01,SE,143,6.0,6.0,86,0.00,,,0.06,Wunderground v.1.15,2013-03-09 03:20:00,
2013-03-08 21:25:00,61.6,57.4,30.00,ESE,119,6.0,6.0,86,0.00,,,0.06,Wunderground v.1.15,2013-03-09 03:25:00,
2013-03-08 21:35:00,61.5,57.3,30.00,SSE,152,6.0,7.0,86,0.00,,,0.06,Wunderground v.1.15,2013-03-09 03:35:00,
2013-03-08 21:40:00,61.5,57.3,30.00,ESE,121,6.0,13.0,86,0.00,,,0.06,Wunderground v.1.15,2013-03-09 03:40:00,
2013-03-08 21:50:00,61.3,57.1,30.00,ESE,121,5.0,5.0,86,0.00,,,0.06,Wunderground v.1.15,2013-03-09 03:50:00,
2013-03-08 21:55:00,61.3,57.4,30.00,SSE,148,5.0,6.0,87,0.00,,,0.06,Wunderground v.1.15,2013-03-09 03:55:00,
2013-03-08 22:05:00,61.2,57.3,30.00,SE,136,6.0,12.0,87,0.00,,,0.06,Wunderground v.1.15,2013-03-09 04:05:00,
2013-03-08 22:10:00,61.2,57.3,29.99,SE,131,6.0,6.0,87,0.00,,,0.06,Wunderground v.1.15,2013-03-09 04:10:00,
2013-03-08 22:20:00,61.2,57.3,29.99,SSE,154,4.0,11.0,87,0.00,,,0.06,Wunderground v.1.15,2013-03-09 04:20:00,
2013-03-08 22:25:00,61.0,57.1,29.99,SSE,157,4.0,11.0,87,0.00,,,0.06,Wunderground v.1.15,2013-03-09 04:25:00,
2013-03-08 22:35:00,61.0,57.1,29.99,SE,140,4.0,4.0,87,0.00,,,0.06,Wunderground v.1.15,2013-03-09 04:35:00,
2013-03-08 22:40:00,61.0,57.1,29.99,ESE,121,4.0,4.0,87,0.00,,,0.06,Wunderground v.1.15,2013-03-09 04:40:00,
2013-03-08 22:50:00,61.0,57.4,29.99,SSE,147,4.0,4.0,88,0.00,,,0.06,Wunderground v.1.15,2013-03-09 04:50:00,
2013-03-08 22:55:00,61.0,57.4,29.98,SE,133,4.0,7.0,88,0.00,,,0.06,Wunderground v.1.15,2013-03-09 04:55:00,
2013-03-08 23:00:00,61.0,57.4,29.98,East,99,5.0,5.0,88,0.00,,,0.06,Wunderground v.1.15,2013-03-09 05:00:00,
2013-03-08 23:05:00,61.0,57.4,29.99,SE,126,4.0,6.0,88,0.00,,,0.06,Wunderground v.1.15,2013-03-09 05:05:00,
2013-03-08 23:10:00,60.9,57.3,29.99,SE,126,3.0,3.0,88,0.00,,,0.06,Wunderground v.1.15,2013-03-09 05:10:00,
2013-03-08 23:15:00,60.9,57.3,29.99,SSE,147,4.0,5.0,88,0.00,,,0.06,Wunderground v.1.15,2013-03-09 05:15:00,
2013-03-08 23:20:00,60.9,57.3,29.99,East,97,5.0,8.0,88,0.00,,,0.06,Wunderground v.1.15,2013-03-09 05:20:00,
2013-03-08 23:25:00,60.9,57.3,29.98,SSE,154,4.0,8.0,88,0.00,,,0.06,Wunderground v.1.15,2013-03-09 05:25:00,
2013-03-08 23:35:00,60.9,57.6,29.97,SSE,155,5.0,6.0,89,0.00,,,0.06,Wunderground v.1.15,2013-03-09 05:35:00,
2013-03-08 23:40:00,60.7,57.4,29.97,ESE,109,5.0,5.0,89,0.00,,,0.06,Wunderground v.1.15,2013-03-09 05:40:00,
2013-03-08 23:50:00,60.7,57.4,29.97,SE,133,5.0,5.0,89,0.00,,,0.06,Wunderground v.1.15,2013-03-09 05:50:00,
2013-03-08 23:55:00,60.7,57.4,29.97,SE,138,5.0,5.0,89,0.00,,,0.06,Wunderground v.1.15,2013-03-09 05:55:00,